EW7067 Weather Reports


time (UTC)temp
F
wind
direction
speed
knots
gust
knots
rain 1hr
in
rain 24hr
in
rain mn
in
humidity
%
barometer
mb
20260906071558 67 311 0.0 0.0 0.00 0.00 0.00 68 967.3
20260906071052 67 311 0.0 0.0 0.00 0.00 0.00 68 967.3
20260906070545 67 311 0.0 0.0 0.00 0.00 0.00 68 967.6
20260906070039 67 311 0.0 0.0 0.00 0.00 0.00 68 967.6
20260906065533 68 311 0.0 0.0 0.00 0.00 0.00 68 967.5
20260906065028 67 311 0.0 0.0 0.00 0.00 0.00 68 967.6
20260906064521 68 311 0.0 0.0 0.00 0.00 0.00 68 967.9
20260906064015 68 311 0.0 0.0 0.00 0.00 0.00 68 967.9
20260906063509 68 311 0.0 0.0 0.00 0.00 0.00 68 967.9
20260906063003 68 311 0.0 0.0 0.00 0.00 0.00 68 968.1
20260906062458 68 311 0.0 0.0 0.00 0.00 0.00 68 968.2
20260906061949 68 311 0.0 0.0 0.00 0.00 0.00 68 968.3
20260906061443 68 311 0.0 0.0 0.00 0.00 0.00 68 968.4
20260906060937 69 311 0.0 0.0 0.00 0.00 0.00 68 968.4
20260906060431 69 311 0.0 0.0 0.00 0.00 0.00 68 968.5
20260906055926 69 311 0.0 0.0 0.00 0.00 0.00 68 968.5
20260906055419 69 311 0.0 0.0 0.00 0.00 0.00 68 968.4
20260906054913 69 311 0.0 0.0 0.00 0.00 0.00 68 968.5
20260906054406 69 311 0.0 0.0 0.00 0.00 0.00 68 968.5
20260906053902 69 311 0.0 0.0 0.00 0.00 0.00 68 968.5
20260906053354 69 311 0.0 0.0 0.00 0.00 0.00 68 968.6
20260906052848 69 311 0.0 0.0 0.00 0.00 0.00 68 968.5
20260906052342 69 311 0.0 0.0 0.00 0.00 0.00 68 968.5
20260906051837 69 311 0.0 0.0 0.00 0.00 0.00 68 968.7
20260906051330 69 311 0.0 0.0 0.00 0.00 0.00 69 968.8
20260906050333 69 311 0.0 0.0 0.00 0.00 0.00 69 968.7
20260905171534 91 339 3.5 8.7 0.00 0.00 0.00 67 969.3
20260905171029 92 305 3.5 7.8 0.00 0.00 0.00 67 969.1
20260905170522 93 317 2.6 7.8 0.00 0.00 0.00 63 969.2
20260905170015 93 5 2.6 7.8 0.00 0.00 0.00 65 969.3
20260905165512 93 302 3.5 9.6 0.00 0.00 0.00 64 969.4
20260905165004 93 347 2.6 9.6 0.00 0.00 0.00 65 969.6
20260905163951 93 207 2.6 9.6 0.00 0.00 0.00 62 969.6
20260905163447 93 273 3.5 7.8 0.00 0.00 0.00 62 969.6
20260905162939 93 305 2.6 7.8 0.00 0.00 0.00 65 969.6
20260905161928 93 28 0.9 3.5 0.00 0.00 0.00 62 969.6
20260905161422 94 29 0.9 3.5 0.00 0.00 0.00 63 969.6
20260905160916 93 29 0.9 4.3 0.00 0.00 0.00 65 969.7
20260905160410 93 29 1.7 6.1 0.00 0.00 0.00 64 969.9
20260905155904 93 30 0.9 6.1 0.00 0.00 0.00 66 969.9
20260905155358 93 304 0.9 2.6 0.00 0.00 0.00 65 969.9
20260905154852 93 304 0.9 4.3 0.00 0.00 0.00 65 970.0
20260905154346 92 308 0.9 4.3 0.00 0.00 0.00 67 969.9
20260905153840 92 308 0.9 3.5 0.00 0.00 0.00 70 969.9
20260905153334 92 308 0.9 6.1 0.00 0.00 0.00 67 969.8
20260905152828 91 254 1.7 6.1 0.00 0.00 0.00 71 969.7
20260905152322 91 321 1.7 4.3 0.00 0.00 0.00 70 969.7
20260905151816 91 322 2.6 6.1 0.00 0.00 0.00 68 969.7
20260905150803 91 323 0.9 3.5 0.00 0.00 0.00 72 969.7
20260905150259 91 310 0.9 2.6 0.00 0.00 0.00 74 969.7
20260905145751 90 310 0.9 2.6 0.00 0.00 0.00 74 969.7
20260905145246 90 315 0.9 2.6 0.00 0.00 0.00 75 969.8
20260905144740 89 311 0.9 3.5 0.00 0.00 0.00 75 969.8
20260905144234 89 311 0.9 3.5 0.00 0.00 0.00 76 969.9
20260905143223 88 5 0.9 2.6 0.00 0.00 0.00 76 970.0
20260905142716 88 5 0.9 2.6 0.00 0.00 0.00 77 969.9
20260905141706 87 114 0.0 0.9 0.00 0.00 0.00 80 969.8
20260905141158 87 114 0.0 1.7 0.00 0.00 0.00 79 969.8
20260905140146 85 114 0.0 1.7 0.00 0.00 0.00 81 969.7
20260905135640 84 114 0.0 1.7 0.00 0.00 0.00 82 969.6
20260905135134 83 42 0.0 0.9 0.00 0.00 0.00 84 969.7
20260905134122 82 42 0.0 1.7 0.00 0.00 0.00 84 969.9
20260905133110 81 42 0.0 0.0 0.00 0.00 0.00 84 970.1
20260905132604 80 42 0.0 0.0 0.00 0.00 0.00 82 970.1
20260905132058 79 42 0.0 0.0 0.00 0.00 0.00 79 970.1
20260905131552 77 42 0.0 0.0 0.00 0.00 0.00 74 970.1
20260905131046 76 42 0.0 0.0 0.00 0.00 0.00 70 970.1
20260905130540 76 42 0.0 0.0 0.00 0.00 0.00 67 970.2
20260905130034 75 42 0.0 0.0 0.00 0.00 0.00 66 970.2
20260905125528 74 42 0.0 0.0 0.00 0.00 0.00 66 970.2
20260905125022 73 42 0.0 0.0 0.00 0.00 0.00 66 970.2
20260905124516 72 42 0.0 0.0 0.00 0.00 0.00 67 970.2
20260905124010 71 42 0.0 0.0 0.00 0.00 0.00 67 970.2
20260905123504 70 42 0.0 0.0 0.00 0.00 0.00 67 970.2
20260905123000 70 42 0.0 0.0 0.00 0.00 0.00 67 970.1
20260905122456 70 42 0.0 0.0 0.00 0.00 0.00 68 970.2
20260905121457 69 42 0.0 0.0 0.00 0.00 0.00 68 970.0
20260905120957 69 42 0.0 0.0 0.00 0.00 0.00 68 970.0
20260905120456 68 42 0.0 0.0 0.00 0.00 0.00 68 970.0
20260905115955 68 42 0.0 0.0 0.00 0.00 0.00 69 969.9
20260905114955 68 42 0.0 0.0 0.00 0.00 0.00 69 969.9
20260905114454 68 42 0.0 0.0 0.00 0.00 0.00 69 969.9
20260905113950 68 42 0.0 0.0 0.00 0.00 0.00 69 969.9
20260905113448 68 42 0.0 0.0 0.00 0.00 0.00 69 969.8
20260905112948 68 42 0.0 0.0 0.00 0.00 0.00 69 969.8
20260905112447 68 42 0.0 0.0 0.00 0.00 0.00 69 969.6
20260905111945 68 42 0.0 0.0 0.00 0.00 0.00 69 969.5
20260905111443 68 42 0.0 0.0 0.00 0.00 0.00 69 969.6
20260905110943 68 42 0.0 0.0 0.00 0.00 0.00 69 969.5
20260905105938 68 42 0.0 0.0 0.00 0.00 0.00 70 969.4
20260905104939 68 42 0.0 0.0 0.00 0.00 0.00 69 969.2
20260905104438 68 42 0.0 0.0 0.00 0.00 0.00 69 969.3
20260905103938 68 42 0.0 0.0 0.00 0.00 0.00 70 969.3
20260905103439 68 42 0.0 0.0 0.00 0.00 0.00 70 969.4
20260905102938 68 42 0.0 0.0 0.00 0.00 0.00 69 969.4
20260905102440 68 42 0.0 0.0 0.00 0.00 0.00 70 969.4
20260905101939 68 42 0.0 0.0 0.00 0.00 0.00 70 969.3
20260905101440 68 42 0.0 0.0 0.00 0.00 0.00 70 969.2
20260905100439 68 42 0.0 0.0 0.00 0.00 0.00 70 969.2
20260905095938 68 42 0.0 0.0 0.00 0.00 0.00 70 969.2
20260905094938 68 42 0.0 0.0 0.00 0.00 0.00 71 969.1
20260905094438 68 42 0.0 0.0 0.00 0.00 0.00 71 969.0
20260905093939 68 42 0.0 0.0 0.00 0.00 0.00 71 969.1
20260905092938 69 42 0.0 0.0 0.00 0.00 0.00 71 969.1
20260905092439 69 42 0.0 0.0 0.00 0.00 0.00 71 969.1
20260905091939 69 42 0.0 0.0 0.00 0.00 0.00 72 969.0
20260905091439 69 42 0.0 0.0 0.00 0.00 0.00 72 969.0
20260905090938 69 42 0.0 0.0 0.00 0.00 0.00 71 969.1
20260905090438 69 42 0.0 0.0 0.00 0.00 0.00 71 969.0
20260905085939 69 42 0.0 0.0 0.00 0.00 0.00 71 969.1
20260905085438 69 42 0.0 0.0 0.00 0.00 0.00 71 969.1
20260905084433 69 42 0.0 0.0 0.00 0.00 0.00 72 969.2
20260905083927 69 42 0.0 0.0 0.00 0.00 0.00 72 969.3
20260905083422 69 42 0.0 0.0 0.00 0.00 0.00 72 969.3
20260905082915 69 42 0.0 0.0 0.00 0.00 0.00 72 969.4
20260905082409 69 42 0.0 0.0 0.00 0.00 0.00 73 969.5
20260905081904 69 42 0.0 0.0 0.00 0.00 0.00 73 969.4
20260905080852 70 42 0.0 0.0 0.00 0.00 0.00 73 969.6
20260905080345 70 42 0.0 0.0 0.00 0.00 0.00 73 969.6
20260905075838 70 42 0.0 0.0 0.00 0.00 0.00 73 969.7
20260905074321 70 42 0.0 0.0 0.00 0.00 0.00 75 969.8
20260905073816 70 42 0.0 0.0 0.00 0.00 0.00 74 969.8
20260905072803 70 42 0.0 0.0 0.00 0.00 0.00 74 969.7